{"data":{"norad_id":54140,"epoch":"2026-09-20T01:33:45.224064Z","epoch_age_seconds":63355,"freshness":"FRESH","line1":"1 54140U 22138AD  26263.06510676 -.00000021  00000+0 -83597-4 0  9990","line2":"2 54140  87.9113 286.0604 0002010  88.4849 271.6514 13.19726680189327","mean_motion":13.1972668,"eccentricity":0.000201,"inclination_deg":87.9113,"raan_deg":286.0604,"arg_perigee_deg":88.4849,"mean_anomaly_deg":271.6514,"bstar":-8.3597e-5,"rev_number":18932,"period_min":109.1135021988,"perigee_km":1184.2437886786,"apogee_km":1187.284476934,"semimajor_km":7563.9011328063,"source":"CELESTRAK","updated_at":"2026-09-20T09:00:44.720818Z"}}